Terminal Aerodrome Forecast
Issued by NWS Portland, ME

Home | Current Version | Previous Version | Text Only | Print | Product List | Glossary On
Versions: 1 2 3 4 5 6 7 8 9 10 11 12 13 14 15 16 17 18 19
000
FTUS41 KGYX 272155 AAD
TAFPWM
TAF AMD
KPWM 272155Z 2722/2818 19009KT P6SM SCT035 BKN100
      TEMPO 2722/2723 3SM SHRA BR BKN035
     FM280600 28004KT P6SM FEW100 SCT250
     FM281200 29005KT P6SM SKC=

USA.gov is the U.S. government's official web portal to all federal, state and local government web resources and services.